timestamp,wind_dir_avg,wind_spd_avg,wind_spd_max_dir,wind_spd_gust,battery_voltage,lat,long
2023-08-19 00:04:00+00:00,197.0,3.61,200.0,4.06,12.41,47.59359,-54.27349
2023-08-19 00:14:01+00:00,201.0,3.86,201.0,4.34,12.41,47.59359,-54.27349
2023-08-19 00:24:01+00:00,199.0,3.6,198.0,4.47,12.41,47.59359,-54.27349
2023-08-19 00:34:01+00:00,190.0,5.07,191.0,5.52,12.41,47.59359,-54.27349
2023-08-19 00:44:01+00:00,190.0,5.4,194.0,5.94,12.41,47.59359,-54.27349
2023-08-19 00:54:01+00:00,206.0,5.34,209.0,6.14,12.41,47.59359,-54.27349
2023-08-19 01:04:01+00:00,220.0,5.69,222.0,6.2,12.41,47.59359,-54.27349
2023-08-19 01:14:01+00:00,189.0,5.3,192.0,6.18,12.41,47.59359,-54.27349
2023-08-19 01:24:01+00:00,192.0,5.0,193.0,5.51,12.41,47.59359,-54.27349
2023-08-19 01:34:01+00:00,183.0,5.53,181.0,6.04,12.41,47.59359,-54.27349
2023-08-19 01:44:01+00:00,188.0,6.34,187.0,6.98,12.41,47.59359,-54.27349
2023-08-19 01:54:01+00:00,184.0,4.93,184.0,5.47,12.41,47.59359,-54.27349
2023-08-19 02:04:01+00:00,177.0,4.58,177.0,4.83,12.41,47.59359,-54.27349
2023-08-19 02:14:01+00:00,181.0,4.68,186.0,5.55,12.41,47.59359,-54.27349
2023-08-19 02:24:01+00:00,183.0,5.84,182.0,6.48,12.41,47.59359,-54.27349
2023-08-19 02:34:01+00:00,186.0,4.83,184.0,5.42,12.41,47.59359,-54.27349
2023-08-19 02:44:01+00:00,174.0,4.53,173.0,4.9,12.41,47.59359,-54.27349
2023-08-19 02:54:01+00:00,173.0,5.09,182.0,5.5,12.41,47.59359,-54.27349
2023-08-19 03:04:01+00:00,169.0,4.46,163.0,4.83,12.41,47.59359,-54.27349
2023-08-19 03:14:00+00:00,168.0,4.31,167.0,4.74,12.41,47.59359,-54.27349
2023-08-19 03:24:00+00:00,176.0,4.58,179.0,4.95,12.41,47.59359,-54.27349
2023-08-19 03:34:00+00:00,173.0,4.23,175.0,4.66,12.41,47.59359,-54.27349
2023-08-19 03:44:00+00:00,168.0,4.76,169.0,5.04,12.41,47.59359,-54.27349
2023-08-19 03:54:00+00:00,174.0,5.34,187.0,5.84,12.41,47.59359,-54.27349
2023-08-19 04:04:00+00:00,174.0,5.03,173.0,5.54,12.41,47.59359,-54.27349
2023-08-19 04:14:01+00:00,174.0,4.13,174.0,4.76,12.41,47.59359,-54.27349
2023-08-19 04:24:01+00:00,168.0,4.47,171.0,4.87,12.41,47.59359,-54.27349
2023-08-19 04:34:01+00:00,166.0,4.51,164.0,4.87,12.41,47.59359,-54.27349
2023-08-19 04:44:01+00:00,170.0,4.23,175.0,4.75,12.41,47.59359,-54.27349
2023-08-19 04:54:01+00:00,170.0,4.11,171.0,4.64,12.41,47.59359,-54.27349
2023-08-19 05:04:01+00:00,164.0,4.58,166.0,4.88,12.41,47.59359,-54.27349
2023-08-19 05:14:00+00:00,173.0,4.75,173.0,5.25,12.33,47.59359,-54.27349
2023-08-19 05:24:00+00:00,174.0,4.41,171.0,4.89,12.33,47.59359,-54.27349
2023-08-19 05:34:00+00:00,169.0,4.23,163.0,4.77,12.33,47.59359,-54.27349
2023-08-19 05:44:00+00:00,165.0,4.47,166.0,4.83,12.33,47.59359,-54.27349
2023-08-19 05:54:00+00:00,168.0,4.79,169.0,5.03,12.33,47.59359,-54.27349
2023-08-19 06:04:00+00:00,172.0,4.58,172.0,4.79,12.33,47.59359,-54.27349
2023-08-19 06:14:00+00:00,172.0,4.56,174.0,4.9,12.33,47.59359,-54.27349
2023-08-19 06:24:00+00:00,173.0,5.5,173.0,6.06,12.33,47.59359,-54.27349
2023-08-19 06:34:00+00:00,179.0,5.68,180.0,6.41,12.33,47.59359,-54.27349
2023-08-19 06:44:00+00:00,181.0,5.58,196.0,6.64,12.33,47.59359,-54.27349
2023-08-19 06:54:00+00:00,179.0,5.27,179.0,5.74,12.33,47.59359,-54.27349
2023-08-19 07:04:00+00:00,180.0,5.66,179.0,6.55,12.33,47.59359,-54.27349
2023-08-19 07:14:01+00:00,178.0,4.9,176.0,5.35,12.33,47.59359,-54.27349
2023-08-19 07:24:01+00:00,180.0,5.24,180.0,5.7,12.33,47.59359,-54.27349
2023-08-19 07:34:01+00:00,176.0,5.24,178.0,5.64,12.33,47.59359,-54.27349
2023-08-19 07:44:01+00:00,180.0,5.95,180.0,6.99,12.33,47.59359,-54.27349
2023-08-19 07:54:01+00:00,175.0,4.82,178.0,5.25,12.33,47.59359,-54.27349
2023-08-19 08:04:01+00:00,173.0,4.82,176.0,5.74,12.33,47.59359,-54.27349
2023-08-19 08:14:00+00:00,172.0,4.86,175.0,5.31,12.25,47.59359,-54.27349
2023-08-19 08:24:00+00:00,171.0,4.66,170.0,5.13,12.25,47.59359,-54.27349
2023-08-19 08:34:00+00:00,181.0,5.22,184.0,5.97,12.25,47.59359,-54.27349
2023-08-19 08:44:00+00:00,182.0,5.04,210.0,5.77,12.25,47.59359,-54.27349
2023-08-19 08:54:00+00:00,196.0,4.79,207.0,5.78,12.25,47.59359,-54.27349
2023-08-19 09:04:00+00:00,198.0,4.53,215.0,5.68,12.25,47.59359,-54.27349
2023-08-19 09:14:00+00:00,205.0,5.06,214.0,5.98,12.25,47.59359,-54.27349
2023-08-19 09:24:00+00:00,195.0,4.31,215.0,5.53,12.25,47.59359,-54.27349
2023-08-19 09:34:00+00:00,190.0,4.21,214.0,5.3,12.25,47.59359,-54.27349
2023-08-19 09:44:00+00:00,180.0,3.52,176.0,4.39,12.25,47.59359,-54.27349
2023-08-19 09:54:00+00:00,180.0,3.21,183.0,3.7,12.25,47.59359,-54.27349
2023-08-19 10:04:00+00:00,177.0,3.99,178.0,4.5,12.25,47.59359,-54.27349
2023-08-19 10:14:00+00:00,185.0,4.32,214.0,5.49,12.25,47.59359,-54.27349
2023-08-19 10:24:00+00:00,182.0,3.86,176.0,4.48,12.25,47.59359,-54.27349
2023-08-19 10:34:00+00:00,191.0,4.23,191.0,4.93,12.25,47.59359,-54.27349
2023-08-19 10:44:00+00:00,185.0,5.12,185.0,5.89,12.25,47.59359,-54.27349
2023-08-19 10:54:00+00:00,188.0,6.38,189.0,6.98,12.25,47.59359,-54.27349
2023-08-19 11:04:00+00:00,185.0,6.2,188.0,7.01,12.25,47.59359,-54.27349
2023-08-19 11:14:01+00:00,185.0,7.02,184.0,7.5,12.57,47.59359,-54.27349
2023-08-19 11:24:01+00:00,198.0,7.45,202.0,8.28,12.57,47.59359,-54.27349
2023-08-19 11:34:01+00:00,183.0,7.41,183.0,8.17,12.57,47.59359,-54.27349
2023-08-19 11:44:01+00:00,185.0,6.5,188.0,7.45,12.57,47.59359,-54.27349
2023-08-19 11:54:01+00:00,180.0,4.84,179.0,5.36,12.57,47.59359,-54.27349
2023-08-19 12:04:01+00:00,184.0,7.35,176.0,9.57,12.57,47.59359,-54.27349
2023-08-19 12:14:00+00:00,177.0,6.67,182.0,7.26,12.65,47.59359,-54.27349
2023-08-19 12:24:00+00:00,183.0,7.01,185.0,7.6,12.65,47.59359,-54.27349
2023-08-19 12:34:00+00:00,182.0,6.04,182.0,6.79,12.65,47.59359,-54.27349
2023-08-19 12:44:00+00:00,179.0,5.81,180.0,7.0,12.65,47.59359,-54.27349
2023-08-19 12:54:00+00:00,176.0,5.43,175.0,6.24,12.65,47.59359,-54.27349
2023-08-19 13:04:00+00:00,181.0,4.62,187.0,5.03,12.65,47.59359,-54.27349
2023-08-19 13:14:01+00:00,183.0,4.83,184.0,5.21,13.13,47.59359,-54.27349
2023-08-19 13:24:01+00:00,176.0,4.55,172.0,5.37,13.13,47.59359,-54.27349
2023-08-19 13:34:01+00:00,176.0,7.06,178.0,7.99,13.13,47.59359,-54.27349
2023-08-19 13:44:01+00:00,172.0,6.9,170.0,7.57,13.13,47.59359,-54.27349
2023-08-19 13:54:01+00:00,175.0,4.24,176.0,4.65,13.13,47.59359,-54.27349
2023-08-19 14:04:01+00:00,181.0,4.54,182.0,5.09,13.13,47.59359,-54.27349
2023-08-19 14:14:00+00:00,179.0,4.72,181.0,5.35,13.29,47.59359,-54.27349
2023-08-19 14:24:00+00:00,175.0,4.3,176.0,5.24,13.29,47.59359,-54.27349
2023-08-19 14:34:00+00:00,176.0,5.51,181.0,6.09,13.29,47.59359,-54.27349
2023-08-19 14:44:00+00:00,179.0,4.82,179.0,5.28,13.29,47.59359,-54.27349
2023-08-19 14:54:00+00:00,188.0,4.92,180.0,5.74,13.29,47.59359,-54.27349
2023-08-19 15:04:00+00:00,176.0,5.94,178.0,6.8,13.29,47.59359,-54.27349
2023-08-19 15:14:00+00:00,171.0,5.45,178.0,6.92,13.37,47.59359,-54.27349
2023-08-19 15:24:00+00:00,172.0,5.47,174.0,6.51,13.37,47.59359,-54.27349
2023-08-19 15:34:00+00:00,176.0,5.31,176.0,5.74,13.37,47.59359,-54.27349
2023-08-19 15:44:00+00:00,178.0,4.16,178.0,4.46,13.37,47.59359,-54.27349
2023-08-19 15:54:00+00:00,170.0,2.92,168.0,3.27,13.37,47.59359,-54.27349
2023-08-19 16:04:00+00:00,165.0,4.42,166.0,4.78,13.37,47.59359,-54.27349
2023-08-19 16:14:01+00:00,161.0,3.58,160.0,4.34,13.37,47.59359,-54.27349
2023-08-19 16:24:01+00:00,175.0,3.2,175.0,3.65,13.37,47.59359,-54.27349
2023-08-19 16:34:01+00:00,174.0,2.59,173.0,2.91,13.37,47.59359,-54.27349
2023-08-19 16:44:01+00:00,184.0,5.85,188.0,6.74,13.37,47.59359,-54.27349
2023-08-19 16:54:01+00:00,177.0,4.09,174.0,4.66,13.37,47.59359,-54.27349
2023-08-19 17:04:01+00:00,173.0,3.71,171.0,4.06,13.37,47.59359,-54.27349
2023-08-19 17:14:01+00:00,171.0,1.88,179.0,2.37,13.21,47.59359,-54.27349
2023-08-19 17:24:01+00:00,161.0,1.39,169.0,1.62,13.21,47.59359,-54.27349
2023-08-19 17:34:01+00:00,150.0,0.76,158.0,1.0,13.21,47.59359,-54.27349
2023-08-19 17:44:01+00:00,115.0,0.42,104.0,0.49,13.21,47.59359,-54.27349
2023-08-19 17:54:01+00:00,125.0,1.44,126.0,1.68,13.21,47.59359,-54.27349
2023-08-19 18:04:01+00:00,129.0,2.36,133.0,2.76,13.21,47.59359,-54.27349
2023-08-19 18:14:00+00:00,152.0,4.6,149.0,6.15,13.37,47.59359,-54.27349
2023-08-19 18:24:00+00:00,174.0,4.69,178.0,5.44,13.37,47.59359,-54.27349
2023-08-19 18:34:00+00:00,161.0,3.42,162.0,3.7,13.37,47.59359,-54.27349
2023-08-19 18:44:00+00:00,164.0,2.19,164.0,2.69,13.37,47.59359,-54.27349
2023-08-19 18:54:00+00:00,145.0,2.1,149.0,2.97,13.37,47.59359,-54.27349
2023-08-19 19:04:00+00:00,169.0,4.19,165.0,4.69,13.37,47.59359,-54.27349
2023-08-19 19:14:00+00:00,169.0,5.24,168.0,5.63,13.13,47.59359,-54.27349
2023-08-19 19:24:00+00:00,169.0,7.26,166.0,8.2,13.13,47.59359,-54.27349
2023-08-19 19:34:00+00:00,171.0,5.77,173.0,6.28,13.13,47.59359,-54.27349
2023-08-19 19:44:00+00:00,164.0,5.27,162.0,6.38,13.13,47.59359,-54.27349
2023-08-19 19:54:00+00:00,161.0,5.0,162.0,5.62,13.13,47.59359,-54.27349
2023-08-19 20:04:00+00:00,153.0,4.83,150.0,5.45,13.13,47.59359,-54.27349
2023-08-19 20:14:01+00:00,156.0,4.71,160.0,5.48,13.13,47.59359,-54.27349
2023-08-19 20:24:01+00:00,170.0,3.34,176.0,4.07,13.13,47.59359,-54.27349
2023-08-19 20:34:01+00:00,155.0,5.22,158.0,6.28,13.13,47.59359,-54.27349
2023-08-19 20:44:01+00:00,158.0,6.91,156.0,7.64,13.13,47.59359,-54.27349
2023-08-19 20:54:01+00:00,161.0,7.02,159.0,7.64,13.13,47.59359,-54.27349
2023-08-19 21:04:01+00:00,169.0,5.2,162.0,6.37,13.13,47.59359,-54.27349
2023-08-19 21:14:00+00:00,172.0,5.12,178.0,5.67,12.97,47.59359,-54.27349
2023-08-19 21:24:00+00:00,169.0,5.95,170.0,6.65,12.97,47.59359,-54.27349
2023-08-19 21:34:00+00:00,170.0,4.64,172.0,5.45,12.97,47.59359,-54.27349
2023-08-19 21:44:00+00:00,167.0,5.1,169.0,5.76,12.97,47.59359,-54.27349
2023-08-19 21:54:00+00:00,175.0,4.69,177.0,5.51,12.97,47.59359,-54.27349
2023-08-19 22:04:00+00:00,174.0,4.04,174.0,5.13,12.97,47.59359,-54.27349
2023-08-19 22:14:00+00:00,174.0,4.04,174.0,4.57,12.57,47.59359,-54.27349
2023-08-19 22:24:00+00:00,175.0,4.78,176.0,5.0,12.57,47.59359,-54.27349
2023-08-19 22:34:00+00:00,178.0,4.38,178.0,4.75,12.57,47.59359,-54.27349
2023-08-19 22:44:00+00:00,172.0,5.86,176.0,6.83,12.57,47.59359,-54.27349
2023-08-19 22:54:00+00:00,172.0,4.62,173.0,5.04,12.57,47.59359,-54.27349
2023-08-19 23:04:00+00:00,175.0,3.62,191.0,3.95,12.57,47.59359,-54.27349
2023-08-19 23:14:00+00:00,159.0,3.1,166.0,3.49,12.41,47.59359,-54.27349
2023-08-19 23:24:00+00:00,161.0,3.57,170.0,4.24,12.41,47.59359,-54.27349
2023-08-19 23:34:00+00:00,167.0,4.11,165.0,4.66,12.41,47.59359,-54.27349
2023-08-19 23:44:00+00:00,169.0,3.72,170.0,4.37,12.41,47.59359,-54.27349
2023-08-19 23:54:00+00:00,168.0,3.92,166.0,4.3,12.41,47.59359,-54.27349
